Location: Cheching
(60.0667°N, 164.2167°W)
Time: 13:10:51
(UTC+00:00)

M-CUBED/EXP-1 PRIME - Visible Passes

Search period start: 16 January 2021 00:00
Search period end: 26 January 2021 00:00
Orbit: 428 x 662 km, 101.7° (Epoch: 15 January)

Date Brightness Start Highest point End Pass type
(mag) Time Alt. Az. Time Alt. Az. Time Alt. Az.
16 Jan ? 15:08:19 10° ESE 15:10:45 23° ENE 15:10:45 23° ENE visible
16 Jan ? 16:41:28 10° SSE 16:45:39 73° WSW 16:46:22 56° NW visible
16 Jan ? 18:18:09 10° SW 18:20:26 14° W 18:21:59 12° WNW visible
17 Jan ? 15:02:41 10° E 15:04:55 21° ENE 15:04:55 21° ENE visible
17 Jan ? 16:35:37 10° SSE 16:39:46 84° WSW 16:40:32 57° NW visible
17 Jan ? 18:11:51 10° SW 18:14:28 16° W 18:16:08 13° WNW visible
18 Jan ? 14:57:05 10° E 14:59:04 19° ENE 14:59:04 19° ENE visible
18 Jan ? 16:29:46 10° SSE 16:33:53 85° ENE 16:34:40 56° NNW visible
18 Jan ? 18:05:38 10° SW 18:08:31 18° W 18:10:17 14° WNW visible
19 Jan ? 14:51:30 10° E 14:53:13 17° ENE 14:53:13 17° ENE visible
19 Jan ? 16:23:57 10° SSE 16:28:01 74° ENE 16:28:49 53° N visible
19 Jan ? 17:59:28 10° SSW 18:02:34 21° W 18:04:25 15° WNW visible
20 Jan ? 14:45:57 10° E 14:47:21 15° ENE 14:47:21 15° ENE visible
20 Jan ? 16:18:08 10° SE 16:22:08 64° ENE 16:22:57 49° N visible
20 Jan ? 17:53:21 10° SSW 17:56:37 23° W 17:58:34 16° WNW visible
21 Jan ? 14:40:25 10° ENE 14:41:29 13° ENE 14:41:29 13° ENE visible
21 Jan ? 16:12:21 10° SE 16:16:15 55° ENE 16:17:06 44° NNE visible
21 Jan ? 17:47:15 10° SSW 17:50:40 26° WSW 17:52:42 17° WNW visible
22 Jan ? 14:34:56 10° ENE 14:35:37 12° ENE 14:35:37 12° ENE visible
22 Jan ? 16:06:35 10° SE 16:10:22 48° ENE 16:11:14 39° NNE visible
22 Jan ? 17:41:11 10° SSW 17:44:44 30° WSW 17:46:50 18° NW visible
23 Jan ? 14:29:31 10° ENE 14:29:45 11° NE 14:29:45 11° NE visible
23 Jan ? 16:00:50 10° SE 16:04:30 41° NE 16:05:22 35° NNE visible
23 Jan ? 17:35:09 10° S 17:38:47 34° WSW 17:40:58 19° NW visible
24 Jan ? 15:55:05 10° ESE 15:58:38 36° NE 15:59:29 31° NNE visible
24 Jan ? 17:29:09 10° S 17:32:51 40° WSW 17:35:06 19° NW visible
25 Jan ? 15:49:22 10° ESE 15:52:45 32° NE 15:53:37 28° NNE visible
25 Jan ? 17:23:10 10° S 17:26:55 46° WSW 17:29:13 19° NW visible
